Weather History for PAPG - September, 2013

Change the Weather History Date:

Saturday, September 21, 2013

  Actual Average Record
Temperature  
Mean Temperature 50 °F -  
Max Temperature 53 °F 52 °F 69 °F (2014)
Min Temperature 48 °F 43 °F 33 °F (2010)
Degree Days  
Heating Degree Days 14    
Moisture  
Dew Point 43 °F    
Average Humidity 76    
Maximum Humidity 93    
Minimum Humidity 62    
Precipitation  
Precipitation 0.30 in - - ()
Sea Level Pressure  
Sea Level Pressure 29.29 in    
Wind  
Wind Speed 7 mph (SE)    
Max Wind Speed 18 mph    
Max Gust Speed 33 mph    
Visibility 10 miles    
Events Rain    
Averages and records for this station are not official NWS values.
T = Trace of Precipitation, MM = Missing Value Source: NWS Daily Summary

Daily Weather History Graph

Daily Weather History Graph

Search for Another Location

Airport or City:

Trip Planner

Search our weather history database for the weather conditions in past years. The results will help you decide how hot, cold, wet, or windy it might be!

Date:

Astronomy

Sep. 21, 2013 Rise Set
Actual Time 6:35 AM AKDT 6:52 PM AKDT
Civil Twilight 5:57 AM AKDT 7:30 PM AKDT
Nautical Twilight 5:12 AM AKDT 8:15 PM AKDT
Astronomical Twilight 4:23 AM AKDT 9:04 PM AKDT
Moon 7:27 PM AKDT (9/21) 9:38 AM AKDT (9/21)
Length of Visible Light 13h 32m
Length of Day
12h 16m
Waning Gibbous, 93% of the Moon is Illuminated
Sep 21
Waning Gibbous
Sep 26
Last Quarter
Oct 4
New
Oct 11
First Quarter
Oct 18
Full

Hourly Weather History & Observations

Time (AKDT) Temp. Dew Point Humidity Pressure Visibility Wind Dir Wind Speed Gust Speed Precip Events Conditions
12:36 AM 51.8 °F 46.4 °F 82% 29.45 in 9.0 mi South 9.2 mph - 0.01 in   Overcast
12:56 AM 51.8 °F 46.4 °F 82% 29.45 in 10.0 mi ESE 4.6 mph - 0.01 in   Overcast
1:36 AM 50.0 °F 46.4 °F 87% 29.45 in 10.0 mi Calm Calm - N/A   Overcast
1:56 AM 50.0 °F 46.4 °F 87% 29.45 in 10.0 mi WNW 3.5 mph - 0.01 in   Mostly Cloudy
2:16 AM 50.0 °F 46.4 °F 87% 29.45 in 8.0 mi SSE 4.6 mph - N/A   Overcast
2:36 AM 50.0 °F 44.6 °F 82% 29.44 in 10.0 mi Calm Calm - 0.01 in   Overcast
2:56 AM 50.0 °F 46.4 °F 87% 29.44 in 9.0 mi NNE 3.5 mph - 0.02 in   Overcast
3:36 AM 48.2 °F 46.4 °F 93% 29.43 in 10.0 mi Calm Calm - 0.01 in   Overcast
4:56 AM 48.2 °F 46.4 °F 93% 29.42 in 10.0 mi Calm Calm - N/A   Overcast
5:36 AM 50.0 °F 44.6 °F 82% 29.40 in 10.0 mi South 10.4 mph - N/A   Overcast
5:56 AM 50.0 °F 44.6 °F 82% 29.40 in 10.0 mi South 11.5 mph - 0.06 in   Overcast
6:16 AM 48.2 °F 42.8 °F 82% 29.39 in 10.0 mi South 10.4 mph - 0.01 in   Overcast
6:36 AM 50.0 °F 42.8 °F 76% 29.39 in 10.0 mi SSW 10.4 mph 24.2 mph 0.01 in   Overcast
6:56 AM 50.0 °F 41.0 °F 71% 29.38 in 10.0 mi South 16.1 mph 23.0 mph 0.01 in   Mostly Cloudy
7:16 AM 51.8 °F 41.0 °F 67% 29.39 in 10.0 mi SSW 11.5 mph 24.2 mph N/A   Mostly Cloudy
7:36 AM 51.8 °F 42.8 °F 71% 29.39 in 10.0 mi SSW 8.1 mph 17.3 mph N/A   Mostly Cloudy
7:56 AM 50.0 °F 42.8 °F 76% 29.39 in 10.0 mi SSE 4.6 mph - N/A   Mostly Cloudy
8:16 AM 48.2 °F 44.6 °F 87% 29.39 in 10.0 mi Calm Calm - N/A   Mostly Cloudy
8:56 AM 50.0 °F 44.6 °F 82% 29.38 in 10.0 mi ESE 4.6 mph - N/A   Overcast
9:16 AM 50.0 °F 44.6 °F 82% 29.38 in 10.0 mi Calm Calm - N/A   Mostly Cloudy
9:36 AM 50.0 °F 44.6 °F 82% 29.37 in 10.0 mi East 4.6 mph - N/A   Mostly Cloudy
9:56 AM 50.0 °F 44.6 °F 82% 29.37 in 10.0 mi ESE 5.8 mph - N/A   Overcast
10:16 AM 50.0 °F 46.4 °F 87% 29.37 in 10.0 mi SSW 4.6 mph - 0.03 in   Overcast
10:56 AM 51.8 °F 46.4 °F 82% 29.35 in 10.0 mi SE 3.5 mph - 0.04 in   Mostly Cloudy
11:16 AM 51.8 °F 46.4 °F 82% 29.34 in 10.0 mi East 4.6 mph - N/A   Mostly Cloudy
11:36 AM 51.8 °F 46.4 °F 82% 29.33 in 10.0 mi East 3.5 mph - N/A   Mostly Cloudy
11:56 AM 53.6 °F 44.6 °F 72% 29.33 in 10.0 mi East 8.1 mph - N/A   Mostly Cloudy
12:36 PM 53.6 °F 44.6 °F 72% 29.32 in 10.0 mi East 12.7 mph 17.3 mph N/A   Mostly Cloudy
12:55 PM 53.6 °F 44.6 °F 72% 29.31 in 10.0 mi East 6.9 mph - N/A Rain Light Rain Showers
1:16 PM 53.6 °F 44.6 °F 72% 29.31 in 10.0 mi East 8.1 mph - N/A   Overcast
1:36 PM 53.6 °F 42.8 °F 67% 29.30 in 10.0 mi East 5.8 mph - N/A   Overcast
2:16 PM 51.8 °F 42.8 °F 71% 29.30 in 10.0 mi East 6.9 mph - N/A   Overcast
2:56 PM 53.6 °F 42.8 °F 67% 29.28 in 10.0 mi South 4.6 mph - N/A   Overcast
3:16 PM 51.8 °F 42.8 °F 71% 29.27 in 10.0 mi East 5.8 mph - N/A   Overcast
3:36 PM 51.8 °F 42.8 °F 71% 29.26 in 10.0 mi Calm Calm - N/A   Overcast
3:56 PM 51.8 °F 42.8 °F 71% 29.25 in 10.0 mi Calm Calm - 0.01 in   Overcast
4:16 PM 50.0 °F 42.8 °F 76% 29.24 in 10.0 mi East 6.9 mph - 0.03 in   Overcast
4:56 PM 50.0 °F 42.8 °F 76% 29.23 in 10.0 mi SE 18.4 mph 31.1 mph 0.05 in   Overcast
5:16 PM 50.0 °F 42.8 °F 76% 29.22 in 10.0 mi East 6.9 mph 16.1 mph 0.02 in   Overcast
5:36 PM 50.0 °F 42.8 °F 76% 29.21 in 10.0 mi East 11.5 mph 17.3 mph 0.03 in   Overcast
5:56 PM 50.0 °F 42.8 °F 76% 29.19 in 10.0 mi East 8.1 mph - 0.03 in   Overcast
6:16 PM 51.8 °F 41.0 °F 67% 29.18 in 10.0 mi East 11.5 mph 21.9 mph N/A   Overcast
6:36 PM 51.8 °F 41.0 °F 67% 29.17 in 10.0 mi East 16.1 mph 25.3 mph N/A   Overcast
6:56 PM 51.8 °F 39.2 °F 62% 29.16 in 10.0 mi SE 10.4 mph 25.3 mph N/A   Overcast
7:16 PM 50.0 °F 41.0 °F 71% 29.15 in 10.0 mi ESE 10.4 mph 18.4 mph N/A   Overcast
7:36 PM 50.0 °F 41.0 °F 71% 29.14 in 10.0 mi East 11.5 mph 19.6 mph N/A   Overcast
8:16 PM 50.0 °F 41.0 °F 71% 29.13 in 10.0 mi SE 9.2 mph 20.7 mph N/A   Overcast
8:36 PM 51.8 °F 41.0 °F 67% 29.12 in 10.0 mi ESE 10.4 mph 26.5 mph N/A   Overcast
8:56 PM 51.8 °F 41.0 °F 67% 29.13 in 10.0 mi ESE 13.8 mph 21.9 mph N/A   Overcast
9:16 PM 51.8 °F 42.8 °F 71% 29.12 in 10.0 mi ESE 9.2 mph 24.2 mph N/A   Overcast
9:56 PM 50.0 °F 41.0 °F 71% 29.11 in 10.0 mi ESE 10.4 mph 33.4 mph N/A   Overcast
10:16 PM 50.0 °F 42.8 °F 76% 29.10 in 10.0 mi ESE 6.9 mph 18.4 mph 0.02 in   Overcast
10:36 PM 50.0 °F 41.0 °F 71% 29.09 in 10.0 mi ESE 10.4 mph 18.4 mph 0.03 in   Overcast
10:56 PM 51.8 °F 41.0 °F 67% 29.09 in 10.0 mi SE 8.1 mph 24.2 mph 0.03 in   Overcast
11:16 PM 51.8 °F 41.0 °F 67% 29.08 in 10.0 mi SE 17.3 mph 26.5 mph N/A   Overcast
11:56 PM 51.8 °F 41.0 °F 67% 29.07 in 10.0 mi ESE 10.4 mph 21.9 mph 0.02 in   Overcast